HP1CDW-10 Weather Reports


time (UTC)temp
C
wind
direction
speed
KPH
gust
KPH
rain 1hr
cm
rain 24hr
cm
rain mn
cm
humidity
%
barometer
mb
20260504100539 33 0.0 0.0 0.00 0.00 0.00 47 1002.8
20260504081447 34 0.0 0.0 0.00 0.00 0.00 47 1002.6
20260504080442 33 0.0 0.0 0.00 0.00 0.00 48 1002.7
20260504070413 34 0.0 0.0 0.00 0.00 0.00 46 1003.7
20260504030218 35 0.0 0.0 0.00 0.00 0.00 45 1004.5
20260504024209 35 0.0 0.0 0.00 0.00 0.00 45 1004.6
20260504021154 35 0.0 0.0 0.00 0.00 0.00 45 1004.3
20260504020149 35 0.0 0.0 0.00 0.00 0.00 45 1004.1
20260504015145 35 0.0 0.0 0.00 0.00 0.00 45 1003.9
20260504014140 35 0.0 0.0 0.00 0.00 0.00 45 1003.9
20260504012130 35 0.0 0.0 0.00 0.00 0.00 44 1003.8
20260504011126 35 0.0 0.0 0.00 0.00 0.00 44 1003.8
20260504005116 35 0.0 0.0 0.00 0.00 0.00 44 1003.9
20260504003106 35 0.0 0.0 0.00 0.00 0.00 44 1003.9
20260504002102 35 0.0 0.0 0.00 0.00 0.00 44 1003.8
20260504001057 36 0.0 0.0 0.00 0.00 0.00 43 1003.7
20260504000052 36 0.0 0.0 0.00 0.00 0.00 43 1003.6
20260503235047 36 0.0 0.0 0.00 0.00 0.00 43 1003.4
20260503233038 36 0.0 0.0 0.00 0.00 0.00 43 1003.2
20260503232033 36 0.0 0.0 0.00 0.00 0.00 43 1003.1
20260503231028 36 0.0 0.0 0.00 0.00 0.00 42 1002.9
20260503230023 35 0.0 0.0 0.00 0.00 0.00 44 1002.7
20260503225018 36 0.0 0.0 0.00 0.00 0.00 43 1002.7
20260503224014 35 0.0 0.0 0.00 0.00 0.00 44 1002.7
20260503223009 36 0.0 0.0 0.00 0.00 0.00 42 1002.6
20260503222004 35 0.0 0.0 0.00 0.00 0.00 44 1002.8
20260503220959 35 0.0 0.0 0.00 0.00 0.00 43 1002.8
20260503215955 36 0.0 0.0 0.00 0.00 0.00 41 1002.8
20260503214950 36 0.0 0.0 0.00 0.00 0.00 42 1002.6
20260503213945 36 0.0 0.0 0.00 0.00 0.00 42 1002.7
20260503212940 36 0.0 0.0 0.00 0.00 0.00 43 1002.7
20260503211935 36 0.0 0.0 0.00 0.00 0.00 42 1002.7
20260503210931 36 0.0 0.0 0.00 0.00 0.00 42 1002.7
20260503205926 36 0.0 0.0 0.00 0.00 0.00 42 1002.8
20260503204921 35 0.0 0.0 0.00 0.00 0.00 44 1002.9
20260503203916 36 0.0 0.0 0.00 0.00 0.00 42 1003.1
20260503202912 36 0.0 0.0 0.00 0.00 0.00 42 1003.1
20260503201907 36 0.0 0.0 0.00 0.00 0.00 42 1003.1
20260503200902 36 0.0 0.0 0.00 0.00 0.00 42 1003.1
20260503195857 36 0.0 0.0 0.00 0.00 0.00 42 1003.1
20260503192843 36 0.0 0.0 0.00 0.00 0.00 42 1003.2
20260503191838 36 0.0 0.0 0.00 0.00 0.00 42 1003.3
20260503190833 36 0.0 0.0 0.00 0.00 0.00 42 1003.5
20260503185828 36 0.0 0.0 0.00 0.00 0.00 42 1003.8
20260503184824 36 0.0 0.0 0.00 0.00 0.00 42 1003.9
20260503183819 36 0.0 0.0 0.00 0.00 0.00 43 1004.1
20260503182814 36 0.0 0.0 0.00 0.00 0.00 44 1004.4
20260503181809 36 0.0 0.0 0.00 0.00 0.00 45 1004.6
20260503180805 36 0.0 0.0 0.00 0.00 0.00 45 1004.7
20260503175800 35 0.0 0.0 0.00 0.00 0.00 46 1004.8
20260503174755 35 0.0 0.0 0.00 0.00 0.00 46 1004.9
20260503173750 35 0.0 0.0 0.00 0.00 0.00 47 1004.9
20260503172745 35 0.0 0.0 0.00 0.00 0.00 47 1004.8
20260503171741 35 0.0 0.0 0.00 0.00 0.00 47 1004.7
20260503170736 34 0.0 0.0 0.00 0.00 0.00 48 1005.1
20260503130541 32 0.0 0.0 0.00 0.00 0.00 51 1005.7
20260503110444 32 0.0 0.0 0.00 0.00 0.00 50 1004.5